Back to catalog

STARLINK-37426

AliveCommunicationsSSO
NORAD 68813·PAYLOAD·🇺🇸 United States

Launched Apr 23, 2026 from Vandenberg Space Force Base

Loading…

Next Passes (next 24 hours)

TLE

FreshSource: CelesTrak SupGP

Epoch: Sep 15, 2026, 02:59 UTC

1 68813C 26089M   26258.12479167 -.00019926  00000+0 -61848-3 0  2587
2 68813  97.2853 103.9549 0001864  84.6497 308.2934 15.33452363    15

Track STARLINK-37426 in real time with AllMySat

Download on the App Store